DAL8635 KSTL-KOMA

Flight info

Callsign DAL8635
Flight time 0h 54m
Altitude 36000
Route WHRLI7 MCM LMN MARWI4
Aircraft A321/M-SDE3FGHIRWY/LB1

Departure

Time 2026-04-21 21:40
Airport St. Louis Lambert International Airport (KSTL)

Arrival

Time 2026-04-21 22:34
Airport Eppley Airfield (KOMA)
Time Latitude Longitude Altitude Speed Heading
2026-04-21 21:08 38.74536 -90.36777 554 ft 0 kts 205°
2026-04-21 21:28 38.74558 -90.36765 552 ft 4 kts 190°
2026-04-21 21:29 38.74585 -90.36764 554 ft 4 kts 168°
2026-04-21 21:29 38.74599 -90.36768 554 ft 1 kts 167°
2026-04-21 21:29 38.74601 -90.36769 554 ft 1 kts 167°
2026-04-21 21:30 38.74618 -90.36774 554 ft 2 kts 171°
2026-04-21 21:30 38.74627 -90.36777 554 ft 0 kts 148°
2026-04-21 21:33 38.74627 -90.36776 554 ft 1 kts 148°
2026-04-21 21:33 38.74593 -90.36725 555 ft 15 kts 122°
2026-04-21 21:33 38.74530 -90.36596 555 ft 17 kts 122°
2026-04-21 21:33 38.74472 -90.36481 558 ft 14 kts 123°
2026-04-21 21:34 38.74431 -90.36391 560 ft 10 kts 121°
2026-04-21 21:34 38.74393 -90.36314 563 ft 14 kts 123°
2026-04-21 21:34 38.74324 -90.36178 569 ft 20 kts 121°
2026-04-21 21:34 38.74260 -90.36044 572 ft 16 kts 122°
2026-04-21 21:35 38.74201 -90.35928 573 ft 15 kts 123°
2026-04-21 21:35 38.74147 -90.35822 575 ft 17 kts 123°
2026-04-21 21:35 38.74059 -90.35620 575 ft 32 kts 124°
2026-04-21 21:35 38.73936 -90.35401 579 ft 29 kts 123°
2026-04-21 21:36 38.73838 -90.35199 588 ft 24 kts 122°
2026-04-21 21:36 38.73753 -90.35032 592 ft 21 kts 122°
2026-04-21 21:36 38.73684 -90.34892 597 ft 17 kts 122°
2026-04-21 21:36 38.73648 -90.34794 597 ft 10 kts 91°
2026-04-21 21:37 38.73685 -90.34736 597 ft 8 kts 33°
2026-04-21 21:37 38.73702 -90.34722 597 ft 0 kts 30°
2026-04-21 21:38 38.73725 -90.34704 597 ft 7 kts 33°
2026-04-21 21:38 38.73766 -90.34670 597 ft 6 kts 31°
2026-04-21 21:38 38.73792 -90.34679 597 ft 3 kts 314°
2026-04-21 21:38 38.73797 -90.34688 597 ft 0 kts 306°
2026-04-21 21:39 38.73931 -90.34959 592 ft 72 kts 301°
2026-04-21 21:39 38.74309 -90.35729 579 ft 129 kts 302°
2026-04-21 21:39 38.74872 -90.36870 568 ft 171 kts 302°
2026-04-21 21:40 38.75501 -90.38158 1126 ft 166 kts 300°
2026-04-21 21:40 38.76096 -90.39410 1742 ft 164 kts 301°
2026-04-21 21:40 38.76710 -90.40630 2318 ft 161 kts 302°
2026-04-21 21:40 38.77329 -90.41842 2683 ft 171 kts 301°
2026-04-21 21:41 38.77997 -90.43210 2854 ft 190 kts 301°
2026-04-21 21:41 38.78733 -90.44689 3067 ft 205 kts 302°
2026-04-21 21:41 38.79538 -90.46312 3206 ft 227 kts 302°
2026-04-21 21:41 38.80436 -90.48111 3392 ft 253 kts 302°
2026-04-21 21:42 38.81419 -90.50074 3887 ft 266 kts 302°
2026-04-21 21:42 38.82429 -90.52085 4606 ft 271 kts 302°
2026-04-21 21:42 38.83458 -90.54129 5354 ft 275 kts 302°
2026-04-21 21:42 38.84500 -90.56199 6074 ft 278 kts 302°
2026-04-21 21:43 38.85556 -90.58295 6768 ft 281 kts 302°
2026-04-21 21:43 38.86623 -90.60417 7430 ft 285 kts 302°
2026-04-21 21:43 38.87700 -90.62565 8069 ft 288 kts 302°
2026-04-21 21:43 38.88791 -90.64737 8684 ft 291 kts 302°
2026-04-21 21:44 38.89880 -90.66903 9270 ft 294 kts 302°
2026-04-21 21:44 38.91006 -90.69145 9846 ft 297 kts 302°
2026-04-21 21:44 38.92142 -90.71407 10161 ft 310 kts 302°
2026-04-21 21:44 38.93326 -90.73769 10290 ft 327 kts 302°
2026-04-21 21:45 38.94588 -90.76292 10418 ft 344 kts 302°
2026-04-21 21:45 38.95899 -90.78919 10711 ft 353 kts 302°
2026-04-21 21:45 38.97232 -90.81593 11170 ft 357 kts 302°
2026-04-21 21:45 38.98579 -90.84291 11643 ft 360 kts 302°
2026-04-21 21:46 38.99936 -90.87012 12100 ft 363 kts 302°
2026-04-21 21:46 39.01303 -90.89756 12543 ft 366 kts 302°
2026-04-21 21:46 39.02675 -90.92517 12969 ft 368 kts 302°
2026-04-21 21:46 39.04060 -90.95307 13383 ft 371 kts 302°
2026-04-21 21:47 39.05455 -90.98116 13782 ft 374 kts 302°
2026-04-21 21:47 39.06860 -91.00946 14178 ft 376 kts 302°
2026-04-21 21:47 39.08270 -91.03797 14567 ft 379 kts 302°
2026-04-21 21:47 39.09689 -91.06668 14936 ft 381 kts 302°
2026-04-21 21:48 39.11078 -91.09591 15298 ft 384 kts 300°
2026-04-21 21:48 39.12394 -91.12592 15647 ft 386 kts 298°
2026-04-21 21:48 39.13667 -91.15647 15986 ft 388 kts 297°
2026-04-21 21:48 39.14925 -91.18735 16311 ft 390 kts 297°
2026-04-21 21:49 39.16188 -91.21835 16620 ft 392 kts 297°
2026-04-21 21:49 39.17471 -91.24951 16913 ft 395 kts 297°
2026-04-21 21:49 39.18742 -91.28096 17194 ft 397 kts 297°
2026-04-21 21:49 39.19997 -91.31271 17468 ft 398 kts 296°
2026-04-21 21:50 39.21248 -91.34469 17727 ft 400 kts 296°
2026-04-21 21:50 39.22503 -91.37683 17976 ft 402 kts 296°
2026-04-21 21:50 39.23764 -91.40912 18218 ft 404 kts 296°
2026-04-21 21:50 39.25038 -91.44152 18450 ft 406 kts 296°
2026-04-21 21:51 39.26321 -91.47400 18678 ft 407 kts 296°
2026-04-21 21:51 39.27608 -91.50655 18888 ft 409 kts 296°
2026-04-21 21:51 39.28901 -91.53929 19093 ft 410 kts 296°
2026-04-21 21:51 39.30197 -91.57218 19286 ft 412 kts 296°
2026-04-21 21:52 39.31495 -91.60520 19466 ft 413 kts 296°
2026-04-21 21:52 39.32796 -91.63835 19646 ft 414 kts 296°
2026-04-21 21:52 39.34099 -91.67160 19820 ft 415 kts 296°
2026-04-21 21:52 39.35405 -91.70496 19989 ft 417 kts 296°
2026-04-21 21:53 39.36713 -91.73842 20146 ft 418 kts 296°
2026-04-21 21:53 39.38004 -91.77155 20298 ft 419 kts 296°
2026-04-21 21:53 39.39316 -91.80522 20447 ft 420 kts 296°
2026-04-21 21:53 39.40630 -91.83899 20588 ft 421 kts 296°
2026-04-21 21:54 39.41943 -91.87278 20724 ft 422 kts 296°
2026-04-21 21:54 39.43262 -91.90674 20858 ft 423 kts 296°
2026-04-21 21:54 39.44589 -91.94084 20990 ft 424 kts 296°
2026-04-21 21:54 39.45913 -91.97488 21115 ft 425 kts 296°
2026-04-21 21:55 39.47240 -92.00912 21240 ft 426 kts 296°
2026-04-21 21:55 39.48567 -92.04342 21368 ft 426 kts 296°
2026-04-21 21:55 39.49895 -92.07777 21492 ft 427 kts 296°
2026-04-21 21:55 39.51224 -92.11219 21619 ft 427 kts 296°
2026-04-21 21:56 39.52551 -92.14665 21744 ft 428 kts 296°
2026-04-21 21:56 39.53880 -92.18116 21868 ft 428 kts 296°
2026-04-21 21:56 39.55209 -92.21569 21993 ft 428 kts 296°
2026-04-21 21:56 39.56539 -92.25025 22118 ft 429 kts 296°
2026-04-21 21:57 39.57866 -92.28475 22242 ft 429 kts 296°
2026-04-21 21:57 39.59195 -92.31935 22366 ft 429 kts 296°
2026-04-21 21:57 39.60524 -92.35397 22491 ft 429 kts 296°
2026-04-21 21:57 39.61849 -92.38860 22615 ft 429 kts 296°
2026-04-21 21:58 39.63171 -92.42324 22739 ft 428 kts 296°
2026-04-21 21:58 39.64491 -92.45788 22864 ft 428 kts 296°
2026-04-21 21:58 39.66028 -92.49092 22987 ft 428 kts 306°
2026-04-21 21:58 39.67908 -92.52087 23113 ft 428 kts 309°
2026-04-21 21:59 39.69824 -92.55039 23237 ft 427 kts 310°
2026-04-21 21:59 39.71711 -92.57942 23360 ft 427 kts 310°
2026-04-21 21:59 39.73626 -92.60890 23485 ft 427 kts 310°
2026-04-21 21:59 39.75537 -92.63837 23609 ft 426 kts 309°
2026-04-21 22:00 39.77444 -92.66781 23734 ft 425 kts 309°
2026-04-21 22:00 39.79347 -92.69725 23858 ft 425 kts 309°
2026-04-21 22:00 39.81245 -92.72669 23983 ft 424 kts 309°
2026-04-21 22:00 39.83139 -92.75609 24107 ft 424 kts 309°
2026-04-21 22:01 39.85030 -92.78546 24232 ft 423 kts 309°
2026-04-21 22:01 39.86916 -92.81479 24357 ft 422 kts 309°
2026-04-21 22:01 39.88800 -92.84408 24482 ft 421 kts 309°
2026-04-21 22:01 39.90678 -92.87333 24607 ft 421 kts 309°
2026-04-21 22:02 39.92550 -92.90256 24731 ft 420 kts 309°
2026-04-21 22:02 39.94419 -92.93174 24856 ft 419 kts 309°
2026-04-21 22:02 39.96282 -92.96086 24981 ft 418 kts 309°
2026-04-21 22:02 39.98137 -92.98986 25106 ft 417 kts 309°
2026-04-21 22:03 39.99992 -93.01886 25231 ft 416 kts 309°
2026-04-21 22:03 40.01843 -93.04779 25355 ft 415 kts 309°
2026-04-21 22:03 40.03688 -93.07665 25480 ft 414 kts 309°
2026-04-21 22:03 40.05525 -93.10548 25605 ft 413 kts 309°
2026-04-21 22:04 40.07357 -93.13426 25730 ft 412 kts 309°
2026-04-21 22:04 40.09184 -93.16298 25855 ft 411 kts 309°
2026-04-21 22:04 40.11007 -93.19164 25980 ft 410 kts 309°
2026-04-21 22:04 40.12801 -93.21988 26103 ft 409 kts 309°
2026-04-21 22:05 40.14612 -93.24848 26228 ft 408 kts 309°
2026-04-21 22:05 40.16418 -93.27705 26353 ft 407 kts 309°
2026-04-21 22:05 40.18220 -93.30557 26478 ft 406 kts 309°
2026-04-21 22:05 40.20014 -93.33398 26602 ft 405 kts 309°
2026-04-21 22:06 40.21813 -93.36245 26728 ft 405 kts 309°
2026-04-21 22:06 40.23607 -93.39078 26852 ft 404 kts 309°
2026-04-21 22:06 40.25392 -93.41900 26977 ft 403 kts 309°
2026-04-21 22:06 40.27175 -93.44727 27102 ft 402 kts 309°
2026-04-21 22:07 40.28953 -93.47551 27227 ft 401 kts 309°
2026-04-21 22:07 40.30727 -93.50369 27352 ft 400 kts 309°
2026-04-21 22:07 40.32497 -93.53182 27476 ft 400 kts 309°
2026-04-21 22:07 40.34263 -93.55990 27601 ft 399 kts 309°
2026-04-21 22:08 40.36022 -93.58795 27726 ft 398 kts 309°
2026-04-21 22:08 40.37777 -93.61594 27851 ft 397 kts 309°
2026-04-21 22:08 40.39529 -93.64386 27976 ft 396 kts 309°
2026-04-21 22:08 40.41276 -93.67173 28100 ft 395 kts 309°
2026-04-21 22:09 40.43013 -93.69950 28225 ft 394 kts 309°
2026-04-21 22:09 40.44749 -93.72731 28350 ft 393 kts 309°
2026-04-21 22:09 40.46477 -93.75505 28475 ft 392 kts 309°
2026-04-21 22:09 40.48201 -93.78274 28599 ft 391 kts 309°
2026-04-21 22:10 40.49920 -93.81035 28724 ft 390 kts 309°
2026-04-21 22:10 40.51633 -93.83791 28849 ft 389 kts 309°
2026-04-21 22:10 40.53340 -93.86538 28974 ft 388 kts 309°
2026-04-21 22:10 40.55032 -93.89264 28834 ft 394 kts 309°
2026-04-21 22:11 40.56785 -93.92092 28589 ft 403 kts 308°
2026-04-21 22:11 40.58398 -93.95151 28342 ft 411 kts 300°
2026-04-21 22:11 40.59679 -93.98550 28092 ft 419 kts 291°
2026-04-21 22:11 40.60595 -94.02273 27839 ft 426 kts 283°
2026-04-21 22:12 40.61221 -94.06058 27590 ft 433 kts 282°
2026-04-21 22:12 40.61864 -94.09959 27340 ft 439 kts 282°
2026-04-21 22:12 40.62519 -94.13888 27089 ft 440 kts 282°
2026-04-21 22:12 40.63175 -94.17813 26839 ft 438 kts 282°
2026-04-21 22:13 40.63828 -94.21724 26589 ft 436 kts 282°
2026-04-21 22:13 40.64477 -94.25614 26338 ft 435 kts 282°
2026-04-21 22:13 40.65120 -94.29489 26088 ft 432 kts 282°
2026-04-21 22:13 40.65757 -94.33349 25838 ft 430 kts 282°
2026-04-21 22:14 40.66386 -94.37194 25588 ft 428 kts 282°
2026-04-21 22:14 40.67010 -94.41022 25338 ft 426 kts 282°
2026-04-21 22:14 40.67631 -94.44832 25087 ft 424 kts 282°
2026-04-21 22:14 40.68248 -94.48626 24837 ft 422 kts 282°
2026-04-21 22:15 40.68863 -94.52401 24587 ft 421 kts 282°
2026-04-21 22:15 40.69474 -94.56155 24336 ft 419 kts 282°
2026-04-21 22:15 40.70081 -94.59897 24086 ft 417 kts 282°
2026-04-21 22:15 40.70679 -94.63623 23835 ft 415 kts 281°
2026-04-21 22:16 40.71072 -94.66085 23670 ft 413 kts 281°
2026-04-21 22:16 40.71664 -94.69783 23419 ft 411 kts 282°
2026-04-21 22:16 40.72255 -94.73460 23169 ft 410 kts 282°
2026-04-21 22:16 40.72850 -94.77174 22915 ft 408 kts 281°
2026-04-21 22:17 40.73425 -94.80778 22668 ft 406 kts 281°
2026-04-21 22:17 40.74004 -94.84410 22418 ft 404 kts 281°
2026-04-21 22:17 40.74580 -94.88015 22165 ft 400 kts 281°
2026-04-21 22:17 40.75148 -94.91574 21740 ft 394 kts 281°
2026-04-21 22:18 40.75706 -94.95095 21277 ft 390 kts 281°
2026-04-21 22:18 40.76256 -94.98584 20802 ft 387 kts 281°
2026-04-21 22:18 40.76800 -95.02042 20338 ft 383 kts 281°
2026-04-21 22:18 40.77348 -95.05472 19835 ft 381 kts 283°
2026-04-21 22:19 40.78256 -95.08739 19338 ft 379 kts 297°
2026-04-21 22:19 40.79703 -95.11626 18842 ft 377 kts 308°
2026-04-21 22:19 40.81337 -95.14320 18345 ft 375 kts 308°
2026-04-21 22:19 40.82961 -95.16999 17891 ft 372 kts 308°
2026-04-21 22:20 40.84564 -95.19653 17444 ft 368 kts 308°
2026-04-21 22:20 40.86154 -95.22293 16967 ft 366 kts 308°
2026-04-21 22:20 40.87730 -95.24919 16494 ft 364 kts 308°
2026-04-21 22:20 40.89296 -95.27532 16026 ft 361 kts 308°
2026-04-21 22:21 40.90850 -95.30132 15561 ft 359 kts 308°
2026-04-21 22:21 40.92390 -95.32711 15099 ft 357 kts 308°
2026-04-21 22:21 40.93924 -95.35282 14638 ft 355 kts 308°
2026-04-21 22:21 40.95451 -95.37839 14179 ft 353 kts 308°
2026-04-21 22:22 40.96950 -95.40347 13723 ft 351 kts 308°
2026-04-21 22:22 40.98461 -95.42875 13265 ft 349 kts 308°
2026-04-21 22:22 41.00156 -95.45159 12801 ft 348 kts 321°
2026-04-21 22:22 41.02038 -95.47130 12528 ft 340 kts 321°
2026-04-21 22:23 41.03846 -95.49026 12393 ft 323 kts 321°
2026-04-21 22:23 41.05566 -95.50834 12086 ft 310 kts 321°
2026-04-21 22:23 41.07237 -95.52594 11616 ft 306 kts 321°
2026-04-21 22:23 41.08886 -95.54334 10996 ft 303 kts 321°
2026-04-21 22:24 41.10528 -95.56067 10657 ft 300 kts 321°
2026-04-21 22:24 41.12155 -95.57789 10344 ft 298 kts 321°
2026-04-21 22:24 41.13775 -95.59504 10200 ft 298 kts 321°
2026-04-21 22:24 41.15395 -95.61219 10088 ft 297 kts 321°
2026-04-21 22:25 41.17012 -95.62930 9845 ft 299 kts 321°
2026-04-21 22:25 41.18631 -95.64643 9551 ft 295 kts 321°
2026-04-21 22:25 41.20230 -95.66339 9356 ft 293 kts 321°
2026-04-21 22:25 41.21815 -95.68024 8971 ft 291 kts 321°
2026-04-21 22:26 41.23392 -95.69698 8591 ft 289 kts 321°
2026-04-21 22:26 41.24957 -95.71360 8217 ft 287 kts 321°
2026-04-21 22:26 41.26514 -95.73012 7843 ft 285 kts 321°
2026-04-21 22:26 41.28062 -95.74653 7472 ft 284 kts 321°
2026-04-21 22:27 41.29600 -95.76287 7107 ft 282 kts 321°
2026-04-21 22:27 41.31126 -95.77912 6732 ft 280 kts 321°
2026-04-21 22:27 41.32642 -95.79526 6358 ft 278 kts 321°
2026-04-21 22:27 41.34140 -95.81120 6072 ft 271 kts 321°
2026-04-21 22:28 41.35595 -95.82673 5612 ft 266 kts 321°
2026-04-21 22:28 41.37005 -95.84177 5386 ft 252 kts 321°
2026-04-21 22:28 41.38348 -95.85609 5150 ft 245 kts 321°
2026-04-21 22:28 41.39664 -95.87006 4904 ft 239 kts 321°
2026-04-21 22:29 41.40966 -95.88383 4463 ft 239 kts 321°
2026-04-21 22:29 41.42263 -95.89755 4092 ft 236 kts 321°
2026-04-21 22:29 41.43523 -95.91087 3879 ft 228 kts 321°
2026-04-21 22:29 41.44623 -95.92539 3513 ft 220 kts 301°
2026-04-21 22:30 41.45005 -95.94461 2942 ft 217 kts 267°
2026-04-21 22:30 41.44545 -95.96346 2527 ft 215 kts 239°
2026-04-21 22:30 41.43552 -95.97804 2469 ft 206 kts 217°
2026-04-21 22:30 41.42373 -95.98587 2482 ft 178 kts 197°
2026-04-21 22:31 41.41215 -95.98803 2482 ft 161 kts 180°
2026-04-21 22:31 41.40138 -95.98587 2478 ft 154 kts 164°
2026-04-21 22:31 41.39169 -95.98006 2480 ft 152 kts 149°
2026-04-21 22:31 41.38304 -95.97195 2481 ft 152 kts 145°
2026-04-21 22:32 41.37443 -95.96377 2402 ft 152 kts 145°
2026-04-21 22:32 41.36599 -95.95573 2248 ft 151 kts 145°
2026-04-21 22:32 41.35737 -95.94752 2062 ft 150 kts 145°
2026-04-21 22:32 41.34890 -95.93945 1872 ft 149 kts 145°
2026-04-21 22:33 41.34049 -95.93140 1683 ft 149 kts 145°
2026-04-21 22:33 41.33220 -95.92348 1491 ft 148 kts 145°
2026-04-21 22:33 41.32381 -95.91552 1274 ft 148 kts 145°
2026-04-21 22:33 41.31545 -95.90763 1068 ft 147 kts 146°
2026-04-21 22:34 41.30740 -95.90001 986 ft 132 kts 144°
2026-04-21 22:34 41.30192 -95.89480 982 ft 54 kts 144°
2026-04-21 22:34 41.29994 -95.89288 982 ft 31 kts 144°
2026-04-21 22:34 41.29851 -95.89151 984 ft 20 kts 144°
2026-04-21 22:35 41.29746 -95.89111 984 ft 15 kts 217°
2026-04-21 22:35 41.29697 -95.89212 985 ft 12 kts 229°
2026-04-21 22:35 41.29649 -95.89294 985 ft 11 kts 236°
2026-04-21 22:35 41.29636 -95.89391 986 ft 14 kts 270°
2026-04-21 22:36 41.29672 -95.89604 985 ft 10 kts 347°
2026-04-21 22:36 41.29737 -95.89606 984 ft 9 kts
2026-04-21 22:36 41.29795 -95.89607 985 ft 8 kts 358°
2026-04-21 22:37 41.29846 -95.89609 985 ft 7 kts 358°
2026-04-21 22:37 41.29914 -95.89609 984 ft 12 kts
2026-04-21 22:37 41.29988 -95.89632 984 ft 10 kts 315°
2026-04-21 22:37 41.29976 -95.89705 985 ft 8 kts 213°
2026-04-21 22:38 41.29933 -95.89753 985 ft 10 kts 224°
2026-04-21 22:38 41.29887 -95.89794 985 ft 6 kts 214°
2026-04-21 22:38 41.29869 -95.89810 985 ft 0 kts 213°
2026-04-21 22:43 41.33440 -95.92557 1528 ft 20 kts 145°
2026-04-21 22:43 41.30913 -95.90163 986 ft 106 kts 145°
2026-04-21 22:43 41.30965 -95.90213 987 ft 68 kts 145°
2026-04-21 22:43 41.31248 -95.90481 1012 ft 2 kts 145°
2026-04-21 22:44 41.31907 -95.91103 1144 ft 0 kts 145°
2026-04-21 22:44 41.31039 -95.90283 995 ft 122 kts 145°
2026-04-21 22:44 41.35034 -95.94083 985 ft 148 kts 145°
2026-04-21 22:44 41.30955 -95.90203 990 ft 139 kts 145°
2026-04-21 22:45 41.30603 -95.89866 984 ft 122 kts 144°
2026-04-21 22:45 41.31585 -95.90800 1076 ft 147 kts 146°
2026-04-21 22:45 41.30775 -95.90034 986 ft 133 kts 144°
2026-04-21 22:45 41.31103 -95.90344 999 ft 143 kts 145°